FW6620 Weather Reports


Display with metric or nautical units.
time (UTC)temp
F
wind
direction
speed
MPH
gust
MPH
rain 1hr
in
rain 24hr
in
rain mn
in
humidity
%
barometer
mb
20260904052546 82 63 0.0 4.0 0.00 0.00 0.00 80 1013.8
20260904052046 82 64 0.0 4.0 0.00 0.00 0.00 80 1013.8
20260904051558 82 62 1.0 4.0 0.00 0.00 0.00 80 1013.7
20260904051045 82 0 0.0 7.0 0.00 0.00 0.00 80 1013.8
20260904050545 82 58 1.0 7.0 0.00 0.00 0.00 80 1013.6
20260904050058 82 62 0.0 4.0 0.00 0.00 0.00 80 1013.6
20260904045543 82 60 0.0 6.0 0.00 0.00 0.00 80 1013.7
20260904045045 82 67 0.0 6.0 0.00 0.00 0.00 79 1013.6
20260904044605 82 78 1.0 4.0 0.00 0.00 0.00 79 1013.6
20260904044045 82 0 1.0 6.0 0.00 0.00 0.00 79 1013.6
20260904043545 82 0 1.0 6.0 0.00 0.00 0.00 79 1013.6
20260904043103 82 0 0.0 6.0 0.00 0.00 0.00 79 1013.6
20260904042546 82 0 0.0 6.0 0.00 0.00 0.00 79 1013.6
20260904042049 83 64 0.0 4.0 0.00 0.00 0.00 79 1013.6
20260904041559 83 0 0.0 6.0 0.00 0.00 0.00 78 1013.6
20260904041045 83 0 0.0 6.0 0.00 0.00 0.00 79 1013.6
20260904040545 83 70 0.0 6.0 0.00 0.00 0.00 78 1013.5
20260904040100 83 0 0.0 4.0 0.00 0.00 0.00 78 1013.6
20260904035546 83 0 0.0 4.0 0.00 0.00 0.00 78 1013.5
20260904035045 83 57 0.0 4.0 0.00 0.00 0.00 78 1013.4
20260904034558 83 69 0.0 6.0 0.00 0.00 0.00 78 1013.5
20260904034045 83 0 1.0 6.0 0.00 0.00 0.00 78 1013.5
20260904033545 83 0 0.0 4.0 0.00 0.00 0.00 78 1013.4
20260904033100 83 0 0.0 3.0 0.00 0.00 0.00 77 1013.5
20260904032544 83 67 0.0 3.0 0.00 0.00 0.00 77 1013.4
20260904032049 83 0 0.0 3.0 0.00 0.00 0.00 77 1013.3
20260904031557 83 0 0.0 4.0 0.00 0.00 0.00 77 1013.3
20260904031047 83 0 0.0 4.0 0.00 0.00 0.00 76 1013.3
20260904030547 83 60 1.0 4.0 0.00 0.00 0.00 76 1013.3
20260904025548 84 0 0.0 4.0 0.00 0.00 0.00 75 1013.2
20260904025047 84 0 1.0 4.0 0.00 0.00 0.00 75 1013.2
20260904024601 84 0 1.0 4.0 0.00 0.00 0.00 74 1013.2
20260904024048 84 0 1.0 4.0 0.00 0.00 0.00 74 1013.0
20260904023548 84 0 0.0 2.0 0.00 0.00 0.00 73 1012.9
20260904023059 85 81 0.0 2.0 0.00 0.00 0.00 73 1013.0
20260904022548 85 0 0.0 6.0 0.00 0.00 0.00 73 1012.9
20260904022048 85 78 0.0 6.0 0.00 0.00 0.00 72 1012.9
20260904021610 85 84 1.0 3.0 0.00 0.00 0.00 72 1012.8
20260904021047 85 84 0.0 3.0 0.00 0.00 0.00 71 1012.7
20260904020547 85 83 0.0 3.0 0.00 0.00 0.00 71 1012.6
20260904020058 85 83 0.0 6.0 0.00 0.00 0.00 70 1012.6
20260904015547 86 0 1.0 6.0 0.00 0.00 0.00 70 1012.5
20260904015049 86 0 0.0 4.0 0.00 0.00 0.00 70 1012.4
20260904014604 86 63 0.0 6.0 0.00 0.00 0.00 70 1012.3
20260904014047 86 58 0.0 6.0 0.00 0.00 0.00 69 1012.2
20260904013546 86 0 0.0 4.0 0.00 0.00 0.00 69 1012.1
20260904013121 86 0 0.0 6.0 0.00 0.00 0.00 69 1012.0
20260904012549 87 0 0.0 6.0 0.00 0.00 0.00 68 1011.9
20260904012048 87 64 0.0 3.0 0.00 0.00 0.00 68 1011.9
20260904011642 87 0 0.0 3.0 0.00 0.00 0.00 68 1011.9
20260904011047 87 0 0.0 3.0 0.00 0.00 0.00 68 1011.9
20260904010547 87 64 0.0 4.0 0.00 0.00 0.00 68 1011.9
20260904010057 87 0 0.0 4.0 0.00 0.00 0.00 67 1012.0
20260904005550 87 108 0.0 4.0 0.00 0.00 0.00 67 1011.9
20260904005047 88 74 1.0 4.0 0.00 0.00 0.00 66 1011.9
20260904004553 88 74 1.0 3.0 0.00 0.00 0.00 66 1012.0
20260904004047 88 0 0.0 3.0 0.00 0.00 0.00 67 1012.0
20260904003546 88 78 1.0 3.0 0.00 0.00 0.00 66 1012.0
20260904003100 88 0 0.0 7.0 0.00 0.00 0.00 66 1012.0
20260904002547 89 68 0.0 7.0 0.00 0.00 0.00 65 1011.9
20260904002047 89 78 0.0 6.0 0.00 0.00 0.00 65 1012.0
20260904001559 89 85 2.0 7.0 0.00 0.00 0.00 65 1011.9
20260904001046 89 0 0.0 7.0 0.00 0.00 0.00 65 1011.8
20260904000547 89 65 1.0 9.0 0.00 0.00 0.00 64 1011.8
20260904000056 90 64 2.0 9.0 0.00 0.00 0.00 64 1011.8
20260903235548 90 66 0.0 8.0 0.00 0.00 0.00 64 1011.7
20260903235047 90 70 2.0 8.0 0.00 0.00 0.00 63 1011.8
20260903234604 90 53 1.0 7.0 0.00 0.00 0.00 63 1011.7
20260903234047 90 47 0.0 4.0 0.00 0.00 0.00 64 1011.8
20260903233547 91 0 1.0 6.0 0.00 0.00 0.00 65 1011.6
20260903233100 91 120 1.0 6.0 0.00 0.00 0.00 64 1011.4
20260903232546 91 66 0.0 6.0 0.00 0.00 0.00 65 1011.4
20260903232047 91 64 1.0 9.0 0.00 0.00 0.00 65 1011.5
20260903231557 92 51 1.0 9.0 0.00 0.00 0.00 64 1011.4
20260903231046 92 77 1.0 6.0 0.00 0.00 0.00 63 1011.4
20260903230552 93 74 1.0 8.0 0.00 0.00 0.00 63 1011.4
20260903230057 93 0 1.0 8.0 0.00 0.00 0.00 62 1011.3
20260903225547 94 166 2.0 8.0 0.00 0.00 0.00 60 1011.3
20260903225046 94 43 1.0 5.0 0.00 0.00 0.00 58 1010.9
20260903224612 94 132 1.0 7.0 0.00 0.00 0.00 56 1011.0
20260903224049 94 213 0.0 7.0 0.00 0.00 0.00 54 1010.9
20260903223547 94 61 1.0 6.0 0.00 0.00 0.00 55 1010.9
20260903223100 94 72 2.0 7.0 0.00 0.00 0.00 54 1010.8
20260903222546 95 0 2.0 7.0 0.00 0.00 0.00 54 1010.8
20260903222047 95 64 1.0 6.0 0.00 0.00 0.00 54 1010.7
20260903221605 95 137 1.0 7.0 0.00 0.00 0.00 53 1010.7
20260903221047 96 80 2.0 7.0 0.00 0.00 0.00 53 1010.7
20260903220546 96 61 1.0 6.0 0.00 0.00 0.00 53 1010.7
20260903220105 97 73 1.0 8.0 0.00 0.00 0.00 52 1010.7
20260903215547 97 101 1.0 8.0 0.00 0.00 0.00 53 1010.7
20260903215046 97 95 0.0 3.0 0.00 0.00 0.00 52 1010.7
20260903214604 97 0 0.0 4.0 0.00 0.00 0.00 51 1010.6
20260903214050 98 81 0.0 4.0 0.00 0.00 0.00 50 1010.7
20260903213549 98 104 0.0 3.0 0.00 0.00 0.00 51 1010.7
20260903213101 98 153 0.0 2.0 0.00 0.00 0.00 50 1010.7
20260903212546 98 0 0.0 3.0 0.00 0.00 0.00 52 1010.8
20260903212047 98 0 0.0 4.0 0.00 0.00 0.00 51 1010.9
20260903211559 98 0 0.0 4.0 0.00 0.00 0.00 51 1010.8
20260903211046 98 57 0.0 4.0 0.00 0.00 0.00 50 1010.8
20260903210544 99 0 0.0 3.0 0.00 0.00 0.00 50 1010.9
20260903210141 99 0 0.0 3.0 0.00 0.00 0.00 50 1011.0
20260903205547 99 71 1.0 4.0 0.00 0.00 0.00 51 1011.0
20260903205048 99 66 0.0 4.0 0.00 0.00 0.00 52 1011.0
20260903204607 99 66 1.0 4.0 0.00 0.00 0.00 51 1011.2
20260903204047 98 54 1.0 3.0 0.00 0.00 0.00 51 1011.2
20260903203548 98 56 0.0 4.0 0.00 0.00 0.00 50 1011.3
20260903203100 99 0 0.0 4.0 0.00 0.00 0.00 51 1011.4
20260903202547 99 53 0.0 2.0 0.00 0.00 0.00 51 1011.5
20260903202048 99 53 0.0 3.0 0.00 0.00 0.00 49 1011.5
20260903201556 99 0 0.0 7.0 0.00 0.00 0.00 50 1011.6
20260903201047 99 0 1.0 7.0 0.00 0.00 0.00 48 1011.6
20260903200547 99 68 1.0 6.0 0.00 0.00 0.00 49 1011.7
20260903200117 99 0 1.0 6.0 0.00 0.00 0.00 50 1011.7
20260903195547 98 86 0.0 6.0 0.00 0.00 0.00 51 1011.7
20260903195050 98 66 0.0 6.0 0.00 0.00 0.00 51 1011.8
20260903194609 98 66 1.0 6.0 0.00 0.00 0.00 51 1011.9
20260903194046 98 60 0.0 6.0 0.00 0.00 0.00 52 1011.9
20260903193547 98 0 0.0 6.0 0.00 0.00 0.00 52 1011.9
20260903193058 98 53 1.0 4.0 0.00 0.00 0.00 52 1012.1
20260903192547 98 61 0.0 6.0 0.00 0.00 0.00 51 1012.2
20260903192046 98 0 1.0 8.0 0.00 0.00 0.00 52 1012.1
20260903191604 98 70 1.0 8.0 0.00 0.00 0.00 52 1012.2
20260903191048 98 0 2.0 4.0 0.00 0.00 0.00 54 1012.5
20260903190548 98 48 0.0 2.0 0.00 0.00 0.00 54 1012.5
20260903190058 98 0 1.0 3.0 0.00 0.00 0.00 53 1012.6
20260903185546 98 46 1.0 3.0 0.00 0.00 0.00 53 1012.7
20260903185047 97 0 1.0 6.0 0.00 0.00 0.00 53 1012.9
20260903184559 97 45 0.0 6.0 0.00 0.00 0.00 54 1012.8
20260903184050 97 43 1.0 6.0 0.00 0.00 0.00 53 1013.0
20260903183547 97 65 0.0 6.0 0.00 0.00 0.00 54 1013.1
20260903183108 97 64 1.0 6.0 0.00 0.00 0.00 55 1013.1
20260903182550 97 66 0.0 6.0 0.00 0.00 0.00 55 1013.3
20260903182047 97 0 1.0 6.0 0.00 0.00 0.00 55 1013.3
20260903181601 97 58 1.0 6.0 0.00 0.00 0.00 54 1013.4
20260903181046 97 85 1.0 6.0 0.00 0.00 0.00 56 1013.4
20260903180549 96 56 0.0 6.0 0.00 0.00 0.00 56 1013.4
20260903180058 96 0 1.0 6.0 0.00 0.00 0.00 57 1013.5
20260903175546 95 59 1.0 6.0 0.00 0.00 0.00 57 1013.5
20260903175050 95 78 0.0 4.0 0.00 0.00 0.00 59 1013.6
20260903174558 94 78 1.0 7.0 0.00 0.00 0.00 58 1013.5
20260903174047 94 54 1.0 10.0 0.00 0.00 0.00 59 1013.7
20260903173547 94 63 2.0 10.0 0.00 0.00 0.00 60 1013.7
20260903173055 94 0 1.0 7.0 0.00 0.00 0.00 60 1013.6
20260903172549 93 0 1.0 7.0 0.00 0.00 0.00 61 1013.8
20260903172047 93 0 1.0 6.0 0.00 0.00 0.00 61 1013.8
20260903171612 93 57 0.0 6.0 0.00 0.00 0.00 62 1013.9
20260903171046 92 66 0.0 6.0 0.00 0.00 0.00 63 1014.0
20260903170547 92 52 1.0 6.0 0.00 0.00 0.00 64 1014.0
20260903170059 92 0 1.0 6.0 0.00 0.00 0.00 62 1014.0
20260903165547 92 81 1.0 7.0 0.00 0.00 0.00 63 1014.1
20260903165049 92 57 1.0 10.0 0.00 0.00 0.00 63 1014.0
20260903164557 92 61 1.0 10.0 0.00 0.00 0.00 63 1014.0
20260903164047 92 0 1.0 10.0 0.00 0.00 0.00 64 1014.1
20260903163548 92 60 1.0 8.0 0.00 0.00 0.00 64 1014.1
20260903163055 91 57 1.0 10.0 0.00 0.00 0.00 66 1014.3
20260903162547 91 57 2.0 10.0 0.00 0.00 0.00 67 1014.2
20260903162047 90 60 1.0 7.0 0.00 0.00 0.00 67 1014.1
20260903161600 90 59 1.0 6.0 0.00 0.00 0.00 67 1014.2
20260903161048 90 103 0.0 6.0 0.00 0.00 0.00 68 1014.3
20260903160547 90 64 1.0 7.0 0.00 0.00 0.00 69 1014.2
20260903160057 89 54 0.0 7.0 0.00 0.00 0.00 69 1014.2
20260903155546 89 0 2.0 7.0 0.00 0.00 0.00 69 1014.2
20260903155046 89 70 2.0 7.0 0.00 0.00 0.00 70 1014.1
20260903154557 89 0 1.0 7.0 0.00 0.00 0.00 70 1014.2
20260903154047 88 63 2.0 7.0 0.00 0.00 0.00 71 1014.3
20260903153546 88 64 0.0 6.0 0.00 0.00 0.00 71 1014.2
20260903153101 88 0 1.0 6.0 0.00 0.00 0.00 72 1014.3
20260903152546 87 87 0.0 4.0 0.00 0.00 0.00 73 1014.2
20260903152046 87 113 0.0 6.0 0.00 0.00 0.00 73 1014.3
20260903151609 87 68 0.0 6.0 0.00 0.00 0.00 74 1014.3
20260903151048 86 64 1.0 6.0 0.00 0.00 0.00 74 1014.3
20260903150548 86 67 0.0 6.0 0.00 0.00 0.00 74 1014.3
20260903150107 86 54 1.0 4.0 0.00 0.00 0.00 76 1014.3
20260903145546 86 0 1.0 4.0 0.00 0.00 0.00 75 1014.2
20260903145046 85 0 0.0 4.0 0.00 0.00 0.00 76 1014.2
20260903144558 85 120 0.0 7.0 0.00 0.00 0.00 77 1014.3
20260903144047 85 89 1.0 7.0 0.00 0.00 0.00 77 1014.2
20260903143546 85 71 1.0 7.0 0.00 0.00 0.00 78 1014.3
20260903143101 85 76 1.0 8.0 0.00 0.00 0.00 78 1014.2
20260903142546 84 72 2.0 8.0 0.00 0.00 0.00 79 1014.3
20260903142046 84 59 0.0 6.0 0.00 0.00 0.00 79 1014.2
20260903141604 84 57 1.0 6.0 0.00 0.00 0.00 80 1014.1
20260903141050 84 68 1.0 6.0 0.00 0.00 0.00 80 1014.2
20260903140547 83 64 1.0 6.0 0.00 0.00 0.00 80 1014.2
20260903140112 83 0 0.0 8.0 0.00 0.00 0.00 81 1014.3
20260903135546 83 0 1.0 8.0 0.00 0.00 0.00 82 1014.4
20260903135047 83 0 1.0 8.0 0.00 0.00 0.00 82 1014.4
20260903134603 83 0 1.0 6.0 0.00 0.00 0.00 82 1014.4
20260903134046 83 66 1.0 9.0 0.00 0.00 0.00 82 1014.3
20260903133547 82 0 1.0 9.0 0.00 0.00 0.00 83 1014.3
20260903133058 82 67 2.0 9.0 0.00 0.00 0.00 83 1014.2
20260903132548 82 0 0.0 4.0 0.00 0.00 0.00 84 1014.3
20260903132047 82 62 0.0 7.0 0.00 0.00 0.00 84 1014.4
20260903131610 82 0 0.0 7.0 0.00 0.00 0.00 84 1014.4
20260903131047 82 66 1.0 6.0 0.00 0.00 0.00 84 1014.4
20260903130546 81 0 0.0 6.0 0.00 0.00 0.00 85 1014.4
20260903125548 81 58 1.0 4.0 0.00 0.00 0.00 86 1014.4
20260903125046 81 0 0.0 3.0 0.00 0.00 0.00 86 1014.3
20260903124615 81 58 0.0 2.0 0.00 0.00 0.00 86 1014.3
20260903124046 81 58 0.0 2.0 0.00 0.00 0.00 86 1014.3
20260903123546 81 0 0.0 0.0 0.00 0.00 0.00 86 1014.2
20260903123100 81 0 0.0 3.0 0.00 0.00 0.00 86 1014.2
20260903122546 81 0 0.0 3.0 0.00 0.00 0.00 86 1014.1
20260903122046 81 58 0.0 3.0 0.00 0.00 0.00 87 1014.1
20260903121559 81 0 0.0 2.0 0.00 0.00 0.00 87 1014.0
20260903121046 81 0 0.0 1.0 0.00 0.00 0.00 87 1014.1
20260903120547 81 0 0.0 0.0 0.00 0.00 0.00 87 1014.0
20260903115546 81 0 0.0 4.0 0.00 0.00 0.00 87 1014.0
20260903115046 81 0 0.0 4.0 0.00 0.00 0.00 87 1013.9
20260903114602 81 58 0.0 3.0 0.00 0.00 0.00 87 1013.9
20260903114046 81 0 0.0 0.0 0.00 0.00 0.00 87 1013.9
20260903113548 81 0 0.0 1.0 0.00 0.00 0.00 87 1013.8
20260903113058 81 0 0.0 3.0 0.00 0.00 0.00 87 1013.8
20260903112548 81 0 0.0 3.0 0.00 0.00 0.00 87 1013.8
20260903112046 81 0 0.0 3.0 0.00 0.00 0.00 87 1013.7
20260903111601 81 0 0.0 6.0 0.00 0.00 0.00 87 1013.7
20260903111047 81 0 1.0 6.0 0.00 0.00 0.00 87 1013.7
20260903110547 81 0 0.0 4.0 0.00 0.00 0.00 87 1013.7
20260903110105 81 61 0.0 4.0 0.00 0.00 0.00 87 1013.7
20260903105550 81 62 0.0 4.0 0.00 0.00 0.00 87 1013.7
20260903105050 81 0 0.0 3.0 0.00 0.00 0.00 87 1013.7
20260903104603 81 0 0.0 7.0 0.00 0.00 0.00 87 1013.7
20260903104046 81 0 0.0 7.0 0.00 0.00 0.00 87 1013.6
20260903103546 81 56 2.0 6.0 0.00 0.00 0.00 87 1013.5
20260903103102 81 72 0.0 4.0 0.00 0.00 0.00 87 1013.5
20260903102545 81 0 1.0 7.0 0.00 0.00 0.00 87 1013.4
20260903102047 81 0 1.0 7.0 0.00 0.00 0.00 87 1013.5
20260903101603 81 70 0.0 6.0 0.00 0.00 0.00 87 1013.5
20260903101047 81 58 1.0 6.0 0.00 0.00 0.00 87 1013.5
20260903100547 81 64 0.0 6.0 0.00 0.00 0.00 87 1013.5
20260903100059 81 0 0.0 6.0 0.00 0.00 0.00 87 1013.5
20260903095546 81 64 0.0 3.0 0.00 0.00 0.00 87 1013.6
20260903095046 81 0 0.0 4.0 0.00 0.00 0.00 87 1013.6
20260903094642 81 64 0.0 4.0 0.00 0.00 0.00 87 1013.7
20260903094046 81 69 0.0 4.0 0.00 0.00 0.00 86 1013.7
20260903093546 81 62 0.0 3.0 0.00 0.00 0.00 86 1013.7
20260903093104 81 0 0.0 6.0 0.00 0.00 0.00 86 1013.7
20260903092550 81 0 1.0 6.0 0.00 0.00 0.00 86 1013.7
20260903092049 81 58 0.0 6.0 0.00 0.00 0.00 86 1013.7
20260903091605 81 53 1.0 6.0 0.00 0.00 0.00 86 1013.8
20260903091046 81 60 0.0 6.0 0.00 0.00 0.00 86 1013.8
20260903090547 81 62 0.0 6.0 0.00 0.00 0.00 86 1013.8
20260903090059 81 66 0.0 4.0 0.00 0.00 0.00 86 1013.9
20260903085546 81 68 1.0 4.0 0.00 0.00 0.00 85 1013.9
20260903085046 81 0 0.0 3.0 0.00 0.00 0.00 85 1013.8
20260903084558 81 0 0.0 4.0 0.00 0.00 0.00 85 1013.8
20260903084046 81 0 1.0 6.0 0.00 0.00 0.00 85 1013.7
20260903083546 82 68 1.0 6.0 0.00 0.00 0.00 85 1013.8
20260903083108 82 0 0.0 4.0 0.00 0.00 0.00 85 1013.9
20260903082546 82 64 1.0 6.0 0.00 0.00 0.00 85 1013.9
20260903082047 82 80 1.0 6.0 0.00 0.00 0.00 84 1013.8
20260903081603 82 65 0.0 8.0 0.00 0.00 0.00 84 1013.8
20260903081047 82 0 1.0 8.0 0.00 0.00 0.00 84 1013.8
20260903080547 82 0 1.0 7.0 0.00 0.00 0.00 84 1013.7
20260903080104 82 0 1.0 7.0 0.00 0.00 0.00 84 1013.8
20260903075546 82 0 2.0 8.0 0.00 0.00 0.00 83 1013.8
20260903075047 82 66 1.0 8.0 0.00 0.00 0.00 83 1013.8
20260903074604 82 56 1.0 8.0 0.00 0.00 0.00 83 1013.9
20260903074047 82 64 2.0 7.0 0.00 0.00 0.00 82 1014.0
20260903073546 82 0 1.0 6.0 0.00 0.00 0.00 82 1014.0
20260903073058 82 60 1.0 8.0 0.00 0.00 0.00 82 1014.0
20260903072546 82 71 1.0 9.0 0.00 0.00 0.00 81 1014.0
20260903072046 83 53 2.0 9.0 0.00 0.00 0.00 81 1014.0
20260903071601 83 59 1.0 6.0 0.00 0.00 0.00 80 1014.0
20260903071046 83 78 0.0 7.0 0.00 0.00 0.00 80 1014.0
20260903070545 83 63 0.0 7.0 0.00 0.00 0.00 80 1014.1
20260903070100 83 0 1.0 6.0 0.00 0.00 0.00 79 1014.2
20260903065547 83 66 1.0 6.0 0.00 0.00 0.00 79 1014.1
20260903065046 83 70 1.0 6.0 0.00 0.00 0.00 78 1014.1
20260903064604 83 0 1.0 7.0 0.00 0.00 0.00 78 1014.1
20260903064047 83 74 0.0 7.0 0.00 0.00 0.00 77 1014.1
20260903063545 84 0 0.0 7.0 0.00 0.00 0.00 77 1014.1
20260903063054 84 64 0.0 7.0 0.00 0.00 0.00 77 1014.1
20260903062546 84 0 1.0 7.0 0.00 0.00 0.00 76 1014.2
20260903062046 84 60 0.0 7.0 0.00 0.00 0.00 76 1014.2
20260903061558 84 0 0.0 8.0 0.00 0.00 0.00 75 1014.2
20260903061046 84 66 1.0 8.0 0.00 0.00 0.00 74 1014.1
20260903060546 84 66 1.0 9.0 0.00 0.00 0.00 73 1014.2
20260903060058 84 60 1.0 9.0 0.00 0.00 0.00 73 1014.0
20260903055547 84 74 1.0 6.0 0.00 0.00 0.00 72 1014.1
20260903055047 85 0 1.0 8.0 0.00 0.00 0.00 72 1014.1
20260903054604 85 60 1.0 8.0 0.00 0.00 0.00 71 1014.1
20260903054048 85 56 2.0 8.0 0.00 0.00 0.00 70 1014.1
20260903053546 85 68 0.0 8.0 0.00 0.00 0.00 70 1014.0
20260903053104 85 0 1.0 13.0 0.00 0.00 0.00 69 1014.0